Location: ???? ?????
(30.0052°N, 31.2891°E)
Time: 19:27:40
(UTC+00:00)

Iridium 16 - Pass Details

Date: 29 January 2023
Orbit: 765 x 769 km, 86.4° (Epoch: 01 April)

Event Time Altitude Azimuth Distance (km) Brightness Sun altitude
Rises 16:27:16 0° 330° (NNW) 3,243 9.0 -12.9°
Reaches altitude 10° 16:31:16 10° 300° (WNW) 2,312 8.7 -13.7°
Maximum altitude 16:33:01 12° 280° (W) 2,192 9.0 -14.1°
Drops below altitude 10° 16:34:45 10° 260° (W) 2,308 9.4 -14.5°
Sets 16:38:45 0° 229° (SW) 3,229 9.8 -15.3°
